Change the Weather History Date:

Tuesday, February 28, 2012

  Actual Average (KDTO) Record (KDTO)
Temperature  
Mean Temperature 62 °F -  
Max Temperature 71 °F 58 °F 82 °F (2014)
Min Temperature 53 °F 36 °F 23 °F (2015)
Degree Days  
Heating Degree Days 3    
Growing Degree Days 12 (Base 50)    
Moisture  
Dew Point 55 °F    
Average Humidity 82    
Maximum Humidity 100    
Minimum Humidity 64    
Precipitation  
Precipitation 0.01 in - - ()
Sea Level Pressure  
Sea Level Pressure 29.99 in    
Wind  
Wind Speed 10 mph (SE)    
Max Wind Speed 20 mph    
Max Gust Speed 28 mph    
Visibility 8 miles    
Events      
Averages and records for this station are not official NWS values.
T = Trace of Precipitation, MM = Missing Value Source: NWS Daily Summary

Daily Weather History Graph

Daily Weather History Graph

Search for Another Location

Airport or City:

Trip Planner

Search our weather history database for the weather conditions in past years. The results will help you decide how hot, cold, wet, or windy it might be!

Date:

Astronomy

Feb. 28, 2012 Rise Set
Actual Time 7:00 AM CST 6:26 PM CST
Civil Twilight 6:35 AM CST 6:50 PM CST
Nautical Twilight 6:06 AM CST 7:19 PM CST
Astronomical Twilight 5:37 AM CST 7:48 PM CST
Moon 10:30 AM CST (2/28) No Moon Set
Length of Visible Light 12h 15m
Length of Day
11h 25m
Waxing Crescent, 38% of the Moon is Illuminated
Feb 28
Waxing Crescent
Feb 29
First Quarter
Mar 8
Full
Mar 14
Last Quarter
Mar 22
New

Hourly Weather History & Observations

Time (CST) Temp. Dew Point Humidity Pressure Visibility Wind Dir Wind Speed Gust Speed Precip Events Conditions
12:15 AM 55.4 °F 46.4 °F 72% 30.15 in 10.0 mi East 8.1 mph - N/A   Scattered Clouds
12:35 AM 55.4 °F 46.4 °F 72% 30.15 in 10.0 mi East 6.9 mph - N/A   Mostly Cloudy
12:55 AM 55.4 °F 46.4 °F 72% 30.14 in 10.0 mi ESE 6.9 mph - N/A   Scattered Clouds
1:15 AM 53.6 °F 46.4 °F 77% 30.14 in 10.0 mi ESE 5.8 mph - N/A   Scattered Clouds
1:35 AM 53.6 °F 46.4 °F 77% 30.14 in 10.0 mi ESE 6.9 mph - N/A   Scattered Clouds
1:55 AM 53.6 °F 46.4 °F 77% 30.13 in 10.0 mi East 5.8 mph - N/A   Clear
2:15 AM 53.6 °F 46.4 °F 77% 30.12 in 10.0 mi ESE 8.1 mph - N/A   Scattered Clouds
2:35 AM 53.6 °F 48.2 °F 82% 30.11 in 10.0 mi ESE 9.2 mph - N/A   Mostly Cloudy
2:55 AM 55.4 °F 48.2 °F 77% 30.10 in 10.0 mi ESE 10.4 mph - N/A   Mostly Cloudy
3:15 AM 57.2 °F 48.2 °F 72% 30.09 in 10.0 mi ESE 10.4 mph - N/A   Mostly Cloudy
3:55 AM 55.4 °F 50.0 °F 82% 30.07 in 10.0 mi ESE 10.4 mph - N/A   Overcast
4:15 AM 55.4 °F 50.0 °F 82% 30.06 in 10.0 mi ESE 8.1 mph - N/A   Overcast
4:35 AM 55.4 °F 50.0 °F 82% 30.06 in 10.0 mi SE 9.2 mph - N/A   Overcast
4:55 AM 55.4 °F 50.0 °F 82% 30.05 in 10.0 mi SE 10.4 mph - N/A   Overcast
5:15 AM 55.4 °F 51.8 °F 88% 30.05 in 10.0 mi ESE 9.2 mph - N/A   Overcast
5:35 AM 55.4 °F 51.8 °F 88% 30.06 in 10.0 mi SE 6.9 mph - N/A   Overcast
5:55 AM 55.4 °F 51.8 °F 88% 30.04 in 10.0 mi ESE 9.2 mph - N/A   Overcast
6:15 AM 55.4 °F 51.8 °F 88% 30.05 in 10.0 mi ESE 8.1 mph - N/A   Overcast
6:35 AM 57.2 °F 51.8 °F 82% 30.05 in 10.0 mi SE 8.1 mph - N/A   Overcast
6:55 AM 59.0 °F 51.8 °F 77% 30.05 in 10.0 mi SE 10.4 mph - N/A   Overcast
7:15 AM 59.0 °F 53.6 °F 82% 30.04 in 10.0 mi SSE 12.7 mph 16.1 mph N/A   Overcast
7:35 AM 59.0 °F 53.6 °F 82% 30.03 in 10.0 mi SE 12.7 mph - N/A   Overcast
7:55 AM 59.0 °F 53.6 °F 82% 30.04 in 10.0 mi SSE 12.7 mph - N/A   Overcast
8:15 AM 59.0 °F 55.4 °F 88% 30.03 in 7.0 mi SSE 12.7 mph 18.4 mph N/A   Overcast
8:35 AM 59.0 °F 55.4 °F 88% 30.03 in 7.0 mi SE 13.8 mph 18.4 mph N/A   Overcast
8:55 AM 59.0 °F 55.4 °F 88% 30.03 in 7.0 mi SSE 13.8 mph 21.9 mph N/A   Overcast
9:15 AM 59.0 °F 57.2 °F 94% 30.03 in 5.0 mi SSE 12.7 mph 17.3 mph N/A   Overcast
9:35 AM 59.0 °F 57.2 °F 94% 30.02 in 5.0 mi SSE 11.5 mph - N/A   Overcast
9:55 AM 60.8 °F 57.2 °F 88% 30.02 in 5.0 mi SE 12.7 mph 16.1 mph N/A   Overcast
10:15 AM 60.8 °F 59.0 °F 94% 30.02 in 4.0 mi SSE 12.7 mph 17.3 mph N/A   Overcast
10:35 AM 60.8 °F 59.0 °F 94% 30.00 in 2.0 mi SE 9.2 mph - N/A   Overcast
10:55 AM 59.0 °F 59.0 °F 100% 30.00 in 1.5 mi SE 9.2 mph - N/A   Overcast
11:15 AM 60.8 °F 59.0 °F 94% 30.00 in 1.8 mi SE 11.5 mph - N/A   Overcast
11:35 AM 60.8 °F 59.0 °F 94% 30.00 in 1.8 mi SSE 9.2 mph - N/A   Overcast
11:55 AM 60.8 °F 59.0 °F 94% 29.99 in 2.0 mi South 13.8 mph - N/A   Light Drizzle
12:15 PM 60.8 °F 60.8 °F 100% 29.97 in 3.0 mi SSE 17.3 mph 20.7 mph N/A   Overcast
12:35 PM 60.8 °F 59.0 °F 94% 29.97 in 2.0 mi SSE 12.7 mph - 0.01 in   Overcast
12:55 PM 60.8 °F 59.0 °F 94% 29.95 in 2.5 mi SSE 13.8 mph - 0.01 in   Overcast
1:15 PM 60.8 °F 60.8 °F 100% 29.94 in 3.0 mi South 12.7 mph 17.3 mph N/A   Overcast
1:35 PM 62.6 °F 60.8 °F 94% 29.91 in 4.0 mi SSE 11.5 mph 16.1 mph N/A   Scattered Clouds
1:55 PM 62.6 °F 60.8 °F 94% 29.88 in 5.0 mi SSE 12.7 mph - N/A   Scattered Clouds
2:15 PM 66.2 °F 60.8 °F 83% 29.86 in 7.0 mi SSE 15.0 mph - N/A   Scattered Clouds
2:35 PM 69.8 °F 60.8 °F 73% 29.85 in 7.0 mi South 18.4 mph 24.2 mph N/A   Clear
2:55 PM 69.8 °F 59.0 °F 68% 29.85 in 10.0 mi South 15.0 mph 25.3 mph N/A   Scattered Clouds
3:15 PM 69.8 °F 59.0 °F 68% 29.85 in 10.0 mi South 18.4 mph 25.3 mph N/A   Mostly Cloudy
3:35 PM 69.8 °F 59.0 °F 68% 29.83 in 10.0 mi South 19.6 mph 26.5 mph N/A   Scattered Clouds
3:55 PM 69.8 °F 59.0 °F 68% 29.83 in 10.0 mi South 17.3 mph 25.3 mph N/A   Clear
4:15 PM 69.8 °F 59.0 °F 68% 29.82 in 10.0 mi SSE 17.3 mph 27.6 mph N/A   Clear
4:35 PM 71.6 °F 60.8 °F 69% 29.82 in 10.0 mi South 18.4 mph 25.3 mph N/A   Clear
4:55 PM 71.6 °F 60.8 °F 69% 29.82 in 10.0 mi South 15.0 mph 25.3 mph N/A   Clear
5:15 PM 71.6 °F 59.0 °F 64% 29.83 in 10.0 mi South 12.7 mph - N/A   Clear
5:35 PM 69.8 °F 59.0 °F 68% 29.84 in 10.0 mi South 12.7 mph 21.9 mph N/A   Clear
5:55 PM 69.8 °F 59.0 °F 68% 29.83 in 10.0 mi South 13.8 mph - N/A   Clear
6:15 PM 69.8 °F 59.0 °F 68% 29.84 in 10.0 mi South 12.7 mph - N/A   Clear
6:35 PM 69.8 °F 59.0 °F 68% 29.84 in 10.0 mi South 15.0 mph - N/A   Clear
6:55 PM 69.8 °F 59.0 °F 68% 29.84 in 10.0 mi South 17.3 mph - N/A   Clear
7:15 PM 69.8 °F 59.0 °F 68% 29.83 in 10.0 mi South 17.3 mph 25.3 mph N/A   Clear
7:35 PM 69.8 °F 59.0 °F 68% 29.83 in 10.0 mi South 18.4 mph 24.2 mph N/A   Clear
7:55 PM 68.0 °F 59.0 °F 73% 29.84 in 10.0 mi South 19.6 mph 26.5 mph N/A   Clear
8:15 PM 68.0 °F 59.0 °F 73% 29.83 in 10.0 mi South 17.3 mph 23.0 mph N/A   Clear
8:35 PM 68.0 °F 59.0 °F 73% 29.83 in 10.0 mi South 17.3 mph 24.2 mph N/A   Clear
8:55 PM 68.0 °F 59.0 °F 73% 29.84 in 10.0 mi South 16.1 mph - N/A   Clear
9:35 PM 68.0 °F 59.0 °F 73% 29.86 in 10.0 mi South 13.8 mph - N/A   Clear
9:55 PM 68.0 °F 59.0 °F 73% 29.87 in 10.0 mi South 11.5 mph 18.4 mph N/A   Clear
10:15 PM 68.0 °F 59.0 °F 73% 29.88 in 10.0 mi South 10.4 mph - N/A   Clear
10:35 PM 68.0 °F 59.0 °F 73% 29.88 in 10.0 mi South 11.5 mph - N/A   Clear
10:55 PM 68.0 °F 59.0 °F 73% 29.89 in 10.0 mi SSW 11.5 mph - N/A   Clear
11:15 PM 68.0 °F 59.0 °F 73% 29.90 in 10.0 mi South 10.4 mph - N/A   Clear
11:35 PM 66.2 °F 59.0 °F 78% 29.90 in 10.0 mi South 10.4 mph - N/A   Clear
11:55 PM 66.2 °F 59.0 °F 78% 29.91 in 10.0 mi SSW 9.2 mph - N/A   Clear